LDPE-3A

Last updated on Thu Nov 21 2024 00:02:45 GMT+0000 (Coordinated Universal Time)

1 55264U 23008B 24325.56268734 -.00000361 00000+0 00000+0 0 9991 2 55264 0.7369 87.9430 0000476 211.6274 76.8490 1.00461642 6060
UTC large
Height (km)
Speed (km/s)
/
Latitude / Longitude
Inclination (degrees)
Orbital Period (minutes)
Azimuth
Elevation
Range (km)
Doppler Factor

Next 0 passes for location: London (51.5072 / 0.1276)

Sorry there are no passes over London.